DAL101 KBWI-KIND

Flight info

Callsign DAL101
Flight time 1h 34m
Altitude 35000
Route LINSE2 MCRAY LEJOY AIR ZANDR BOWRR EMPTY CLANG7
Aircraft B748/H-SDE3FGHIM1M2RWXY/LB1

Departure

Time 2026-04-29 23:27
Airport Baltimore/Washington International Thurgood Marshall Airport (KBWI)

Arrival

Time 2026-04-30 01:01
Airport Indianapolis International Airport (KIND)
Time Latitude Longitude Altitude Speed Heading
2026-04-29 23:04 39.18348 -76.66770 176 ft 0 kts 160°
2026-04-29 23:16 39.18353 -76.66772 176 ft 1 kts 160°
2026-04-29 23:16 39.18358 -76.66775 176 ft 1 kts 160°
2026-04-29 23:16 39.18365 -76.66778 176 ft 1 kts 161°
2026-04-29 23:16 39.18379 -76.66785 177 ft 2 kts 147°
2026-04-29 23:17 39.18393 -76.66796 177 ft 2 kts 128°
2026-04-29 23:17 39.18397 -76.66816 178 ft 2 kts 51°
2026-04-29 23:17 39.18393 -76.66823 178 ft 0 kts 51°
2026-04-29 23:20 39.18395 -76.66819 178 ft 6 kts 51°
2026-04-29 23:20 39.18463 -76.66697 175 ft 18 kts 65°
2026-04-29 23:20 39.18422 -76.66507 171 ft 18 kts 137°
2026-04-29 23:21 39.18344 -76.66391 170 ft 17 kts 99°
2026-04-29 23:21 39.18286 -76.66265 169 ft 24 kts 144°
2026-04-29 23:21 39.18132 -76.66125 166 ft 26 kts 144°
2026-04-29 23:21 39.17951 -76.66031 163 ft 26 kts 191°
2026-04-29 23:22 39.17875 -76.66118 164 ft 7 kts 234°
2026-04-29 23:22 39.17812 -76.66193 165 ft 22 kts 213°
2026-04-29 23:22 39.17614 -76.66357 164 ft 43 kts 213°
2026-04-29 23:22 39.17446 -76.66533 165 ft 13 kts 248°
2026-04-29 23:23 39.17459 -76.66613 167 ft 13 kts 282°
2026-04-29 23:23 39.17466 -76.66855 169 ft 38 kts 272°
2026-04-29 23:23 39.17594 -76.67166 169 ft 55 kts 329°
2026-04-29 23:23 39.17812 -76.67353 165 ft 30 kts 325°
2026-04-29 23:24 39.17946 -76.67479 167 ft 18 kts 325°
2026-04-29 23:24 39.18066 -76.67588 168 ft 25 kts 324°
2026-04-29 23:24 39.18217 -76.67730 173 ft 29 kts 323°
2026-04-29 23:24 39.18401 -76.67900 173 ft 33 kts 324°
2026-04-29 23:25 39.18511 -76.68001 170 ft 7 kts 324°
2026-04-29 23:25 39.18540 -76.68028 169 ft 3 kts 321°
2026-04-29 23:25 39.18561 -76.68065 169 ft 9 kts 292°
2026-04-29 23:25 39.18554 -76.68120 170 ft 3 kts 239°
2026-04-29 23:26 39.18520 -76.68157 169 ft 0 kts 194°
2026-04-29 23:26 39.18468 -76.68130 169 ft 18 kts 149°
2026-04-29 23:26 39.18239 -76.67912 173 ft 81 kts 142°
2026-04-29 23:26 39.17519 -76.67246 178 ft 167 kts 143°
2026-04-29 23:27 39.16480 -76.66256 684 ft 189 kts 143°
2026-04-29 23:27 39.15397 -76.65223 1717 ft 205 kts 148°
2026-04-29 23:27 39.13932 -76.64862 2815 ft 226 kts 185°
2026-04-29 23:27 39.12354 -76.65130 4502 ft 232 kts 199°
2026-04-29 23:28 39.11002 -76.66261 6233 ft 238 kts 231°
2026-04-29 23:28 39.10278 -76.68190 8025 ft 245 kts 258°
2026-04-29 23:28 39.10393 -76.70409 9730 ft 258 kts 286°
2026-04-29 23:28 39.11361 -76.72365 11146 ft 269 kts 310°
2026-04-29 23:29 39.12963 -76.73622 12131 ft 276 kts 333°
2026-04-29 23:29 39.14770 -76.74276 13112 ft 280 kts 339°
2026-04-29 23:29 39.16647 -76.74977 14059 ft 275 kts 324°
2026-04-29 23:29 39.18158 -76.76410 15043 ft 267 kts 305°
2026-04-29 23:30 39.19172 -76.78371 16054 ft 261 kts 287°
2026-04-29 23:30 39.19634 -76.80605 17082 ft 257 kts 276°
2026-04-29 23:30 39.19987 -76.82898 17971 ft 265 kts 277°
2026-04-29 23:30 39.20317 -76.85282 18704 ft 273 kts 276°
2026-04-29 23:31 39.20649 -76.87721 19399 ft 279 kts 277°
2026-04-29 23:31 39.21011 -76.90202 20132 ft 283 kts 278°
2026-04-29 23:31 39.21380 -76.92708 20871 ft 286 kts 277°
2026-04-29 23:31 39.21743 -76.95229 21627 ft 286 kts 277°
2026-04-29 23:32 39.22009 -76.97756 22394 ft 282 kts 268°
2026-04-29 23:32 39.22027 -77.00186 22888 ft 290 kts 269°
2026-04-29 23:32 39.22071 -77.02856 22883 ft 313 kts 269°
2026-04-29 23:32 39.22125 -77.05654 22861 ft 307 kts 269°
2026-04-29 23:33 39.22167 -77.08351 22845 ft 295 kts 269°
2026-04-29 23:33 39.22171 -77.10986 22857 ft 295 kts 262°
2026-04-29 23:33 39.21697 -77.13564 22840 ft 297 kts 248°
2026-04-29 23:33 39.20684 -77.15874 22858 ft 298 kts 233°
2026-04-29 23:34 39.19264 -77.17841 22835 ft 301 kts 229°
2026-04-29 23:34 39.17803 -77.19767 22845 ft 301 kts 229°
2026-04-29 23:34 39.16342 -77.21696 22862 ft 300 kts 229°
2026-04-29 23:34 39.14885 -77.23620 22859 ft 298 kts 230°
2026-04-29 23:35 39.13456 -77.25503 22846 ft 292 kts 230°
2026-04-29 23:35 39.12025 -77.27394 22847 ft 296 kts 230°
2026-04-29 23:35 39.10610 -77.29259 22819 ft 295 kts 230°
2026-04-29 23:35 39.09164 -77.31164 22855 ft 300 kts 230°
2026-04-29 23:36 39.07713 -77.33072 22859 ft 297 kts 230°
2026-04-29 23:36 39.06276 -77.34976 22833 ft 296 kts 233°
2026-04-29 23:36 39.05140 -77.37151 22853 ft 293 kts 247°
2026-04-29 23:36 39.04486 -77.39611 22851 ft 292 kts 260°
2026-04-29 23:37 39.04219 -77.42207 22835 ft 292 kts 262°
2026-04-29 23:37 39.03956 -77.44792 22848 ft 291 kts 262°
2026-04-29 23:37 39.03693 -77.47380 22852 ft 291 kts 262°
2026-04-29 23:37 39.03438 -77.49956 22850 ft 291 kts 262°
2026-04-29 23:38 39.03183 -77.52536 22851 ft 291 kts 262°
2026-04-29 23:38 39.02925 -77.55115 22848 ft 291 kts 262°
2026-04-29 23:38 39.02665 -77.57698 22850 ft 291 kts 262°
2026-04-29 23:38 39.02407 -77.60271 22854 ft 290 kts 262°
2026-04-29 23:39 39.02150 -77.62830 22847 ft 288 kts 262°
2026-04-29 23:39 39.01891 -77.65394 22852 ft 289 kts 262°
2026-04-29 23:39 39.01632 -77.67956 22855 ft 289 kts 262°
2026-04-29 23:39 39.01371 -77.70527 22852 ft 289 kts 262°
2026-04-29 23:40 39.01117 -77.73033 23443 ft 277 kts 262°
2026-04-29 23:40 39.00870 -77.75462 24109 ft 271 kts 262°
2026-04-29 23:40 39.00637 -77.77745 24757 ft 265 kts 262°
2026-04-29 23:40 39.00401 -77.80055 25442 ft 257 kts 262°
2026-04-29 23:41 39.00172 -77.82287 26119 ft 246 kts 262°
2026-04-29 23:41 38.99955 -77.84410 26777 ft 233 kts 262°
2026-04-29 23:41 38.99748 -77.86409 27436 ft 216 kts 262°
2026-04-29 23:41 38.99552 -77.88277 27827 ft 209 kts 262°
2026-04-29 23:42 38.99364 -77.90139 27902 ft 212 kts 262°
2026-04-29 23:42 38.99168 -77.92053 27857 ft 219 kts 262°
2026-04-29 23:42 38.98967 -77.93990 27962 ft 218 kts 262°
2026-04-29 23:42 38.98766 -77.95928 27969 ft 219 kts 262°
2026-04-29 23:43 38.98568 -77.97824 28316 ft 205 kts 263°
2026-04-29 23:43 38.98386 -77.99581 28796 ft 191 kts 263°
2026-04-29 23:43 38.98209 -78.01277 28715 ft 198 kts 263°
2026-04-29 23:43 38.98021 -78.03106 28395 ft 212 kts 263°
2026-04-29 23:44 38.97824 -78.04987 28480 ft 209 kts 263°
2026-04-29 23:44 38.97634 -78.06789 28767 ft 199 kts 263°
2026-04-29 23:44 38.97452 -78.08534 28818 ft 198 kts 263°
2026-04-29 23:44 38.97267 -78.10304 28604 ft 207 kts 263°
2026-04-29 23:45 38.97070 -78.12181 28588 ft 212 kts 263°
2026-04-29 23:45 38.96872 -78.14057 28659 ft 215 kts 263°
2026-04-29 23:45 38.96681 -78.15985 28744 ft 220 kts 263°
2026-04-29 23:45 38.96519 -78.17956 28818 ft 225 kts 268°
2026-04-29 23:46 38.96292 -78.19956 28929 ft 229 kts 260°
2026-04-29 23:46 38.96118 -78.21992 29121 ft 230 kts 271°
2026-04-29 23:46 38.96231 -78.24050 29327 ft 233 kts 272°
2026-04-29 23:46 38.96367 -78.26143 29517 ft 236 kts 272°
2026-04-29 23:47 38.96504 -78.28265 29723 ft 240 kts 272°
2026-04-29 23:47 38.96644 -78.30435 29800 ft 249 kts 272°
2026-04-29 23:47 38.96790 -78.32683 29930 ft 255 kts 272°
2026-04-29 23:47 38.96937 -78.34973 30102 ft 261 kts 272°
2026-04-29 23:48 38.97088 -78.37311 30363 ft 264 kts 273°
2026-04-29 23:48 38.97241 -78.39676 30645 ft 266 kts 272°
2026-04-29 23:48 38.97392 -78.42051 30913 ft 268 kts 272°
2026-04-29 23:48 38.97544 -78.44437 31253 ft 267 kts 272°
2026-04-29 23:49 38.97694 -78.46793 31591 ft 267 kts 272°
2026-04-29 23:49 38.97844 -78.49166 31913 ft 267 kts 272°
2026-04-29 23:49 38.97994 -78.51542 32247 ft 266 kts 272°
2026-04-29 23:49 38.98143 -78.53912 32565 ft 265 kts 272°
2026-04-29 23:50 38.98290 -78.56266 32899 ft 263 kts 272°
2026-04-29 23:50 38.98437 -78.58609 33219 ft 261 kts 272°
2026-04-29 23:50 38.98723 -78.63207 33851 ft 254 kts 272°
2026-04-29 23:51 38.98863 -78.65467 34100 ft 252 kts 272°
2026-04-29 23:51 38.99000 -78.67695 34333 ft 248 kts 272°
2026-04-29 23:51 38.99135 -78.69888 34568 ft 244 kts 272°
2026-04-29 23:51 38.99268 -78.72053 34708 ft 243 kts 272°
2026-04-29 23:52 38.99397 -78.74184 34826 ft 241 kts 272°
2026-04-29 23:52 38.99486 -78.75643 34809 ft 245 kts 272°
2026-04-29 23:52 38.99663 -78.78557 34828 ft 249 kts 272°
2026-04-29 23:52 38.99798 -78.80790 34831 ft 252 kts 272°
2026-04-29 23:53 38.99888 -78.82281 34853 ft 254 kts 272°
2026-04-29 23:53 39.00025 -78.84571 34852 ft 259 kts 272°
2026-04-29 23:53 39.00164 -78.86880 34846 ft 265 kts 272°
2026-04-29 23:53 39.00310 -78.89320 34853 ft 276 kts 272°
2026-04-29 23:54 39.00460 -78.91836 34865 ft 289 kts 272°
2026-04-29 23:54 39.00616 -78.94469 34871 ft 302 kts 272°
2026-04-29 23:54 39.00779 -78.97214 34866 ft 315 kts 272°
2026-04-29 23:54 39.00948 -79.00091 34872 ft 329 kts 272°
2026-04-29 23:55 39.01124 -79.03085 34873 ft 343 kts 272°
2026-04-29 23:55 39.01306 -79.06206 34891 ft 357 kts 273°
2026-04-29 23:55 39.01494 -79.09451 34878 ft 370 kts 273°
2026-04-29 23:55 39.01689 -79.12820 34868 ft 385 kts 273°
2026-04-29 23:56 39.01891 -79.16319 34862 ft 399 kts 273°
2026-04-29 23:56 39.02104 -79.19944 34855 ft 413 kts 274°
2026-04-29 23:56 39.02358 -79.23681 34850 ft 426 kts 274°
2026-04-29 23:56 39.02625 -79.27481 34846 ft 439 kts 274°
2026-04-29 23:57 39.02881 -79.31428 34854 ft 445 kts 274°
2026-04-29 23:57 39.03384 -79.39360 34843 ft 445 kts 274°
2026-04-29 23:58 39.03899 -79.47286 34856 ft 444 kts 274°
2026-04-29 23:58 39.04397 -79.55211 34844 ft 443 kts 273°
2026-04-29 23:59 39.04894 -79.63124 34858 ft 443 kts 273°
2026-04-29 23:59 39.05384 -79.71031 34885 ft 443 kts 274°
2026-04-30 00:00 39.05863 -79.78817 34855 ft 431 kts 274°
2026-04-30 00:00 39.06320 -79.86378 34864 ft 414 kts 273°
2026-04-30 00:01 39.06758 -79.93662 34867 ft 400 kts 273°
2026-04-30 00:01 39.07173 -80.00661 34862 ft 387 kts 273°
2026-04-30 00:02 39.07575 -80.07505 34848 ft 377 kts 273°
2026-04-30 00:02 39.07962 -80.14151 34851 ft 367 kts 273°
2026-04-30 00:03 39.08336 -80.20635 34846 ft 360 kts 273°
2026-04-30 00:03 39.08699 -80.26991 34849 ft 352 kts 273°
2026-04-30 00:04 39.09048 -80.33216 34844 ft 346 kts 273°
2026-04-30 00:04 39.09376 -80.39341 34850 ft 339 kts 273°
2026-04-30 00:05 39.09700 -80.45353 34888 ft 337 kts 273°
2026-04-30 00:05 39.09864 -80.48439 34891 ft 352 kts 273°
2026-04-30 00:05 39.10034 -80.51655 34887 ft 367 kts 273°
2026-04-30 00:05 39.10211 -80.55005 34894 ft 382 kts 273°
2026-04-30 00:06 39.10394 -80.58489 34888 ft 397 kts 273°
2026-04-30 00:06 39.10770 -80.65712 34857 ft 403 kts 273°
2026-04-30 00:07 39.11136 -80.72809 34839 ft 393 kts 273°
2026-04-30 00:07 39.11487 -80.79728 34848 ft 381 kts 273°
2026-04-30 00:08 39.11813 -80.86226 34850 ft 370 kts 273°
2026-04-30 00:08 39.12141 -80.92869 34875 ft 377 kts 273°
2026-04-30 00:09 39.12478 -80.99741 34871 ft 391 kts 273°
2026-04-30 00:09 39.12835 -81.06845 34873 ft 404 kts 275°
2026-04-30 00:10 39.14273 -81.13956 34886 ft 419 kts 287°
2026-04-30 00:10 39.16307 -81.21092 34884 ft 425 kts 287°
2026-04-30 00:10 39.17300 -81.24579 34874 ft 404 kts 287°
2026-04-30 00:11 39.18251 -81.27896 34865 ft 386 kts 286°
2026-04-30 00:11 39.20086 -81.34396 34883 ft 387 kts 286°
2026-04-30 00:12 39.21947 -81.40954 34889 ft 390 kts 286°
2026-04-30 00:12 39.23802 -81.47526 34893 ft 390 kts 286°
2026-04-30 00:13 39.25646 -81.54069 34891 ft 390 kts 286°
2026-04-30 00:13 39.27497 -81.60659 34875 ft 391 kts 286°
2026-04-30 00:14 39.29355 -81.67288 34889 ft 394 kts 286°
2026-04-30 00:14 39.31220 -81.73959 34892 ft 395 kts 286°
2026-04-30 00:15 39.33078 -81.80622 34895 ft 395 kts 286°
2026-04-30 00:15 39.34903 -81.87182 34896 ft 394 kts 286°
2026-04-30 00:16 39.36755 -81.93860 34896 ft 395 kts 286°
2026-04-30 00:16 39.38605 -82.00546 34899 ft 395 kts 286°
2026-04-30 00:17 39.40451 -82.07236 34901 ft 395 kts 286°
2026-04-30 00:17 39.42294 -82.13933 34904 ft 394 kts 286°
2026-04-30 00:18 39.44136 -82.20642 34902 ft 395 kts 286°
2026-04-30 00:18 39.45963 -82.27312 34907 ft 396 kts 286°
2026-04-30 00:19 39.47797 -82.34029 34899 ft 396 kts 286°
2026-04-30 00:19 39.49628 -82.40750 34901 ft 395 kts 285°
2026-04-30 00:20 39.51452 -82.47464 34901 ft 395 kts 285°
2026-04-30 00:20 39.53271 -82.54180 34909 ft 395 kts 285°
2026-04-30 00:21 39.55089 -82.60905 34916 ft 395 kts 285°
2026-04-30 00:21 39.56887 -82.67577 34916 ft 395 kts 285°
2026-04-30 00:22 39.58659 -82.74155 34903 ft 377 kts 285°
2026-04-30 00:22 39.60384 -82.80615 34919 ft 382 kts 285°
2026-04-30 00:23 39.62135 -82.87150 34922 ft 384 kts 285°
2026-04-30 00:23 39.63873 -82.93672 34922 ft 384 kts 285°
2026-04-30 00:24 39.65628 -83.00266 34924 ft 384 kts 285°
2026-04-30 00:24 39.67357 -83.06782 34923 ft 384 kts 285°
2026-04-30 00:25 39.69644 -83.13153 34531 ft 390 kts 287°
2026-04-30 00:25 39.70550 -83.16454 32823 ft 401 kts 284°
2026-04-30 00:25 39.71309 -83.20018 31363 ft 407 kts 286°
2026-04-30 00:25 39.72218 -83.23344 31609 ft 376 kts 286°
2026-04-30 00:26 39.72801 -83.25452 31684 ft 358 kts 285°
2026-04-30 00:26 39.73862 -83.29357 31808 ft 339 kts 285°
2026-04-30 00:26 39.74641 -83.32251 31908 ft 341 kts 285°
2026-04-30 00:26 39.75426 -83.35176 32022 ft 343 kts 285°
2026-04-30 00:27 39.76205 -83.38077 32495 ft 335 kts 285°
2026-04-30 00:27 39.76971 -83.40903 33266 ft 326 kts 285°
2026-04-30 00:27 39.77720 -83.43640 34012 ft 317 kts 285°
2026-04-30 00:27 39.78457 -83.46304 34613 ft 310 kts 285°
2026-04-30 00:28 39.79189 -83.48937 34908 ft 311 kts 285°
2026-04-30 00:28 39.80696 -83.54392 34942 ft 330 kts 285°
2026-04-30 00:28 39.81477 -83.57249 34853 ft 343 kts 285°
2026-04-30 00:29 39.82290 -83.60244 34099 ft 356 kts 285°
2026-04-30 00:29 39.83119 -83.63322 33317 ft 362 kts 285°
2026-04-30 00:29 39.83947 -83.66386 32535 ft 355 kts 285°
2026-04-30 00:29 39.84759 -83.69382 31770 ft 347 kts 285°
2026-04-30 00:30 39.85287 -83.71324 31275 ft 342 kts 285°
2026-04-30 00:30 39.86074 -83.74209 30532 ft 334 kts 285°
2026-04-30 00:30 39.86849 -83.77011 30082 ft 323 kts 285°
2026-04-30 00:30 39.87619 -83.79730 29951 ft 318 kts 285°
2026-04-30 00:31 39.88388 -83.82403 29947 ft 312 kts 285°
2026-04-30 00:31 39.89907 -83.87618 29941 ft 302 kts 285°
2026-04-30 00:31 39.90651 -83.90154 29940 ft 298 kts 285°
2026-04-30 00:32 39.91392 -83.92659 29937 ft 294 kts 285°
2026-04-30 00:32 39.92127 -83.95125 29932 ft 290 kts 285°
2026-04-30 00:32 39.92868 -83.97614 29221 ft 303 kts 286°
2026-04-30 00:32 39.93639 -84.00250 28436 ft 318 kts 286°
2026-04-30 00:33 39.94422 -84.02965 27655 ft 320 kts 286°
2026-04-30 00:33 39.95199 -84.05680 26903 ft 319 kts 286°
2026-04-30 00:33 39.95968 -84.08390 26162 ft 317 kts 286°
2026-04-30 00:33 39.96715 -84.11041 25449 ft 316 kts 286°
2026-04-30 00:34 39.97466 -84.13737 24725 ft 315 kts 286°
2026-04-30 00:34 39.98206 -84.16419 24153 ft 312 kts 286°
2026-04-30 00:34 39.98934 -84.19079 23969 ft 312 kts 286°
2026-04-30 00:34 39.99655 -84.21732 23969 ft 310 kts 286°
2026-04-30 00:35 40.00374 -84.24373 23971 ft 308 kts 286°
2026-04-30 00:35 40.01092 -84.27005 23972 ft 307 kts 286°
2026-04-30 00:35 40.01809 -84.29628 23970 ft 305 kts 286°
2026-04-30 00:35 40.02041 -84.30474 23969 ft 305 kts 286°
2026-04-30 00:36 40.03220 -84.34803 23960 ft 302 kts 286°
2026-04-30 00:36 40.03923 -84.37381 23954 ft 301 kts 286°
2026-04-30 00:36 40.04625 -84.39947 23951 ft 299 kts 286°
2026-04-30 00:36 40.05321 -84.42494 23954 ft 297 kts 284°
2026-04-30 00:37 40.05677 -84.45107 23965 ft 291 kts 275°
2026-04-30 00:37 40.05933 -84.47737 23994 ft 298 kts 277°
2026-04-30 00:37 40.06266 -84.50411 23975 ft 296 kts 278°
2026-04-30 00:37 40.06605 -84.53067 23974 ft 297 kts 277°
2026-04-30 00:38 40.06920 -84.55739 23974 ft 298 kts 277°
2026-04-30 00:38 40.07229 -84.58416 23969 ft 298 kts 277°
2026-04-30 00:38 40.07545 -84.61093 23964 ft 298 kts 277°
2026-04-30 00:38 40.07863 -84.63762 23973 ft 297 kts 277°
2026-04-30 00:39 40.08178 -84.66432 23980 ft 297 kts 277°
2026-04-30 00:39 40.08491 -84.69104 23978 ft 297 kts 277°
2026-04-30 00:39 40.08878 -84.71757 23965 ft 297 kts 283°
2026-04-30 00:39 40.09458 -84.74317 23969 ft 298 kts 283°
2026-04-30 00:40 40.10038 -84.76952 23632 ft 301 kts 283°
2026-04-30 00:40 40.10609 -84.79578 23248 ft 300 kts 283°
2026-04-30 00:40 40.11187 -84.82181 22951 ft 294 kts 283°
2026-04-30 00:40 40.11752 -84.84719 22951 ft 292 kts 283°
2026-04-30 00:41 40.12317 -84.87292 22957 ft 295 kts 283°
2026-04-30 00:41 40.12886 -84.89872 22955 ft 295 kts 283°
2026-04-30 00:41 40.13454 -84.92450 22960 ft 295 kts 283°
2026-04-30 00:41 40.14022 -84.95033 22967 ft 295 kts 283°
2026-04-30 00:42 40.14588 -84.97609 23015 ft 296 kts 283°
2026-04-30 00:42 40.15156 -85.00197 22960 ft 291 kts 283°
2026-04-30 00:42 40.15704 -85.02689 22954 ft 280 kts 283°
2026-04-30 00:42 40.16242 -85.05156 22954 ft 283 kts 283°
2026-04-30 00:43 40.16772 -85.07582 22964 ft 280 kts 283°
2026-04-30 00:43 40.17308 -85.10033 22951 ft 282 kts 283°
2026-04-30 00:43 40.17847 -85.12503 22806 ft 284 kts 283°
2026-04-30 00:43 40.18402 -85.15044 22137 ft 277 kts 283°
2026-04-30 00:44 40.18931 -85.17480 21572 ft 278 kts 283°
2026-04-30 00:44 40.19459 -85.19906 21022 ft 276 kts 283°
2026-04-30 00:44 40.19989 -85.22317 20501 ft 275 kts 283°
2026-04-30 00:44 40.20517 -85.24723 19992 ft 275 kts 283°
2026-04-30 00:45 40.21043 -85.27129 19498 ft 274 kts 283°
2026-04-30 00:45 40.21564 -85.29516 19062 ft 272 kts 283°
2026-04-30 00:45 40.21907 -85.31086 18966 ft 271 kts 283°
2026-04-30 00:45 40.22599 -85.34263 18694 ft 271 kts 283°
2026-04-30 00:46 40.23117 -85.36643 18465 ft 272 kts 282°
2026-04-30 00:46 40.23294 -85.39085 18093 ft 272 kts 264°
2026-04-30 00:46 40.22822 -85.41463 17612 ft 269 kts 249°
2026-04-30 00:46 40.21922 -85.43630 17146 ft 272 kts 245°
2026-04-30 00:47 40.21002 -85.45737 16692 ft 257 kts 245°
2026-04-30 00:47 40.20142 -85.47719 16181 ft 250 kts 246°
2026-04-30 00:47 40.19295 -85.49698 15677 ft 247 kts 245°
2026-04-30 00:47 40.18454 -85.51656 15205 ft 247 kts 245°
2026-04-30 00:48 40.17615 -85.53594 15001 ft 243 kts 245°
2026-04-30 00:48 40.16801 -85.55473 14983 ft 238 kts 245°
2026-04-30 00:48 40.15993 -85.57342 14989 ft 234 kts 245°
2026-04-30 00:48 40.15201 -85.59178 14986 ft 231 kts 245°
2026-04-30 00:49 40.14410 -85.61006 14912 ft 231 kts 245°
2026-04-30 00:49 40.13594 -85.62905 14190 ft 240 kts 245°
2026-04-30 00:49 40.12776 -85.64820 13552 ft 242 kts 245°
2026-04-30 00:49 40.11963 -85.66723 12916 ft 235 kts 245°
2026-04-30 00:50 40.11176 -85.68562 12252 ft 231 kts 245°
2026-04-30 00:50 40.10408 -85.70360 11637 ft 229 kts 245°
2026-04-30 00:50 40.09886 -85.71583 11213 ft 228 kts 245°
2026-04-30 00:50 40.08857 -85.73984 10390 ft 228 kts 245°
2026-04-30 00:51 40.08081 -85.75796 9775 ft 228 kts 245°
2026-04-30 00:51 40.07307 -85.77600 9158 ft 226 kts 245°
2026-04-30 00:51 40.06537 -85.79394 9012 ft 227 kts 245°
2026-04-30 00:51 40.05754 -85.81191 9010 ft 228 kts 242°
2026-04-30 00:52 40.04893 -85.82936 9008 ft 229 kts 242°
2026-04-30 00:52 40.04051 -85.84697 9013 ft 229 kts 242°
2026-04-30 00:52 40.03206 -85.86462 9013 ft 229 kts 242°
2026-04-30 00:52 40.02189 -85.88074 9019 ft 233 kts 230°
2026-04-30 00:53 40.01072 -85.89567 9013 ft 232 kts 231°
2026-04-30 00:53 40.00143 -85.91249 9021 ft 228 kts 243°
2026-04-30 00:53 39.99182 -85.92918 9002 ft 232 kts 233°
2026-04-30 00:53 39.98046 -85.94428 8465 ft 230 kts 230°
2026-04-30 00:54 39.96899 -85.95897 7949 ft 228 kts 230°
2026-04-30 00:54 39.95779 -85.97328 7466 ft 217 kts 230°
2026-04-30 00:54 39.94704 -85.98705 6945 ft 212 kts 231°
2026-04-30 00:54 39.93660 -86.00068 6481 ft 212 kts 231°
2026-04-30 00:55 39.92619 -86.01409 5952 ft 212 kts 230°
2026-04-30 00:55 39.91556 -86.02773 5421 ft 211 kts 230°
2026-04-30 00:55 39.89516 -86.05403 4968 ft 202 kts 231°
2026-04-30 00:56 39.88487 -86.06728 4598 ft 206 kts 231°
2026-04-30 00:56 39.87463 -86.08041 4102 ft 207 kts 231°
2026-04-30 00:56 39.86447 -86.09360 4023 ft 208 kts 231°
2026-04-30 00:56 39.85416 -86.10690 4019 ft 207 kts 231°
2026-04-30 00:57 39.84386 -86.12013 4016 ft 208 kts 230°
2026-04-30 00:57 39.83339 -86.13358 3627 ft 209 kts 230°
2026-04-30 00:57 39.82315 -86.14667 3011 ft 205 kts 230°
2026-04-30 00:57 39.81342 -86.15919 2597 ft 181 kts 231°
2026-04-30 00:58 39.80481 -86.17017 2616 ft 171 kts 232°
2026-04-30 00:58 39.79655 -86.18096 2595 ft 168 kts 232°
2026-04-30 00:58 39.78845 -86.19129 2577 ft 160 kts 232°
2026-04-30 00:58 39.78031 -86.20179 2467 ft 164 kts 231°
2026-04-30 00:59 39.77211 -86.21228 2251 ft 161 kts 231°
2026-04-30 00:59 39.76408 -86.22255 2032 ft 161 kts 232°
2026-04-30 00:59 39.75589 -86.23319 1818 ft 162 kts 231°
2026-04-30 00:59 39.74767 -86.24379 1601 ft 162 kts 230°
2026-04-30 01:00 39.73967 -86.25383 1379 ft 159 kts 228°
2026-04-30 01:00 39.73173 -86.26427 1169 ft 160 kts 228°
2026-04-30 01:00 39.72385 -86.27410 943 ft 155 kts 227°
2026-04-30 01:00 39.71634 -86.28390 810 ft 159 kts 225°
2026-04-30 01:01 39.70954 -86.29248 797 ft 111 kts 225°
2026-04-30 01:01 39.70625 -86.29670 802 ft 31 kts 225°
2026-04-30 01:01 39.70434 -86.29917 801 ft 61 kts 226°
2026-04-30 01:01 39.70243 -86.30161 798 ft 14 kts 224°
2026-04-30 01:02 39.70234 -86.30172 798 ft 0 kts 224°
2026-04-30 01:02 39.70216 -86.30196 799 ft 13 kts 224°
2026-04-30 01:02 39.70119 -86.30320 799 ft 13 kts 225°
2026-04-30 01:02 39.70065 -86.30389 801 ft 0 kts 224°